sat.trackr.live / text

‹ back to catalog

STARLINK-35589

NORAD 66426 · 2025-259E

PAYLOAD ACTIVE UNKNOWN

§ Identity

Operator
Country
US
Launch date
2025-11-11
Launch site
AFETR
Launch vehicle
Mass (kg)
RCS (m²)

Purposes: comms

External: N2YO · Heavens-Above · Gunter

§ Orbital elements

Epoch: 2026-05-25T04:59:58.765056Z

Period
94.27 min
Inclination
42.9998°
Eccentricity
0.0002677
Mean motion
15.27593675 rev/d
Perigee alt
481.2 km
Apogee alt
484.8 km
Semi-major
6,861.1 km
B*
4.6691e-4
RAAN
202.2368°
Arg perigee
288.4506°
Mean anomaly
71.6054°
Rev number
3,119

§ Raw data

STARLINK-355891 66426U 25259E   26145.20831904  .00012614  00000+0  46691-3 0  99942 66426  42.9998 202.2368 0002677 288.4506  71.6054 15.27593675 31192

JSON: /api/v1/satellites/66426 · /tle

For live sub-satellite position, see the globe view (requires WebGL).

§ Visibility from observer

Set your observer location to see the next 7 days of passes ≥ 10°. The values pass through the URL so the page stays shareable.

No JS? Fill the form by hand. The geolocation button needs JavaScript.